period_start,C,m1,H,J0,J1,J2,J3,J4,J5,JA,JB,JC,JD,JJ,JK,JN,#
2014-08-28 00:00:33,-0.00,0.08,0.00,24.75,29.02,31.29,9.40,38.74,1011.56,2032.82,3426.00,3296.85,3578.01,499.57,490.72,9.87,0000 0000 0000 0000 000000
2014-08-28 00:05:35,-0.01,0.08,0.00,24.77,29.02,31.31,9.43,38.83,1011.50,2032.63,3425.99,3296.37,3578.00,500.04,491.38,9.91,0000 0000 0000 0000 000000
2014-08-28 00:10:36,-0.00,0.08,0.00,24.79,29.04,31.32,9.48,39.02,1011.31,2032.45,3425.82,3296.04,3577.99,500.08,490.95,9.96,0000 0000 0000 0000 000000
2014-08-28 00:15:37,0.03,0.08,0.00,24.83,29.05,31.31,9.46,38.92,1011.27,2032.56,3425.46,3296.02,3577.95,500.09,491.26,10.00,0000 0000 0000 0000 000000
2014-08-28 00:20:38,0.01,0.08,0.00,24.86,29.07,31.32,9.40,38.73,1011.26,2032.55,3425.14,3295.99,3577.60,500.12,491.16,10.04,0000 0000 0000 0000 000000
2014-08-28 00:25:39,-0.02,0.08,0.00,24.90,29.08,31.33,9.42,38.73,1011.26,2032.32,3425.00,3295.93,3577.02,499.90,490.83,10.08,0000 0000 0000 0000 000000
2014-08-28 00:30:40,0.01,0.08,0.00,24.94,29.10,31.36,9.45,38.89,1011.25,2032.35,3424.99,3295.64,3577.00,499.67,490.52,10.12,0000 0000 0000 0000 000000
2014-08-28 00:35:41,0.01,0.08,0.00,24.98,29.12,31.37,9.45,38.92,1011.25,2032.12,3424.58,3295.09,3576.69,500.11,491.10,10.16,0000 0000 0000 0000 000000
2014-08-28 00:40:43,0.01,0.09,0.00,24.99,29.14,31.38,9.51,38.63,1011.25,2032.04,3424.00,3294.93,3576.03,499.86,490.65,10.21,0000 0000 0000 0000 000000
2014-08-28 00:45:44,0.02,0.09,0.00,25.02,29.16,31.41,9.46,38.80,1011.25,2032.01,3423.71,3294.47,3575.99,500.18,490.88,10.25,0000 0000 0000 0000 000000
2014-08-28 00:50:45,0.01,0.09,0.00,25.05,29.18,31.43,9.42,38.96,1011.25,2032.00,3423.10,3294.03,3575.81,499.85,490.60,10.29,0000 0000 0000 0000 000000
2014-08-28 00:55:46,0.01,0.09,0.00,25.07,29.20,31.44,9.42,38.87,1011.25,2032.00,3422.99,3293.99,3575.17,499.81,490.55,10.33,0000 0000 0000 0000 000000
2014-08-28 01:00:47,0.01,0.09,0.00,25.08,29.22,31.46,9.55,38.86,1011.25,2032.00,3422.62,3293.90,3574.99,500.44,490.93,10.37,0000 0000 0000 0000 000000
2014-08-28 01:05:48,0.03,0.09,0.00,25.10,29.24,31.49,9.47,38.85,1011.24,2031.99,3422.04,3293.30,3574.68,499.93,490.52,10.42,0000 0000 0000 0000 000000
2014-08-28 01:10:49,0.01,0.09,0.00,25.14,29.26,31.51,9.46,38.84,1011.24,2031.98,3421.98,3293.01,3574.06,500.29,490.89,10.46,0000 0000 0000 0000 000000
2014-08-28 01:15:51,0.01,0.09,0.00,25.16,29.29,31.54,9.45,38.76,1011.24,2031.98,3421.56,3292.99,3574.00,500.19,490.63,10.50,0000 0000 0000 0000 000000
2014-08-28 01:20:52,0.01,0.09,0.00,25.18,29.31,31.55,9.43,38.78,1011.24,2031.90,3421.03,3292.82,3573.89,500.14,490.42,10.54,0000 0000 0000 0000 000000
2014-08-28 01:25:53,0.02,0.09,0.00,25.21,29.33,31.57,9.39,38.83,1011.24,2031.81,3420.88,3292.21,3573.25,499.69,490.18,10.58,0000 0000 0000 0000 000000
2014-08-28 01:30:54,-0.04,0.09,0.00,25.25,29.35,31.61,9.43,38.90,1011.16,2031.31,3420.10,3291.99,3572.99,499.96,490.20,10.62,0000 0000 0000 0000 000000
2014-08-28 01:35:55,-0.01,0.09,0.00,25.27,29.38,31.64,9.42,38.88,1010.81,2031.06,3420.00,3291.92,3572.69,499.89,490.08,10.67,0000 0000 0000 0000 000000
2014-08-28 01:40:56,0.03,0.09,0.00,25.29,29.40,31.65,9.50,38.96,1010.77,2031.05,3419.81,3291.42,3572.09,499.70,489.96,10.71,0000 0000 0000 0000 000000
2014-08-28 01:45:57,0.02,0.09,0.00,25.30,29.43,31.67,9.49,38.85,1010.76,2031.01,3419.07,3291.01,3572.00,500.02,490.21,10.75,0000 0000 0000 0000 000000
2014-08-28 01:50:59,0.00,0.09,0.00,25.34,29.45,31.70,9.42,38.83,1010.76,2031.00,3419.00,3290.99,3571.92,499.89,489.89,10.79,0000 0000 0000 0000 000000
2014-08-28 01:56:00,0.02,0.09,0.00,25.39,29.48,31.71,9.40,38.54,1010.76,2031.00,3418.78,3290.82,3571.26,499.93,489.80,10.83,0000 0000 0000 0000 000000
2014-08-28 02:01:01,0.03,0.09,0.00,25.42,29.51,31.74,9.51,38.89,1010.77,2030.98,3418.08,3290.11,3571.00,500.11,489.88,10.88,0000 0000 0000 0000 000000
2014-08-28 02:06:02,0.00,0.10,0.00,25.46,29.53,31.76,9.37,38.74,1010.76,2030.89,3417.94,3289.99,3570.42,500.06,489.99,10.92,0000 0000 0000 0000 000000
2014-08-28 02:11:03,-0.01,0.10,0.00,25.52,29.56,31.78,9.48,38.95,1010.76,2030.70,3417.41,3289.77,3570.04,500.03,489.62,10.96,0000 0000 0000 0000 000000
2014-08-28 02:16:04,-0.02,0.09,0.00,25.56,29.59,31.81,9.40,38.88,1010.76,2030.19,3417.01,3289.06,3569.95,500.15,489.65,11.00,0000 0000 0000 0000 000000
2014-08-28 02:21:06,0.01,0.09,0.00,25.60,29.62,31.83,9.43,38.79,1010.76,2030.05,3416.81,3289.00,3569.32,500.06,489.62,11.04,0000 0000 0000 0000 000000
2014-08-28 02:26:07,0.02,0.09,0.00,25.64,29.66,31.87,9.34,38.56,1010.75,2030.01,3416.08,3288.67,3569.00,500.15,489.75,11.08,0000 0000 0000 0000 000000
2014-08-28 02:31:07,0.02,0.10,0.00,25.70,29.69,31.89,9.40,38.81,1010.74,2030.01,3415.94,3288.07,3568.67,499.85,489.24,11.13,0000 0000 0000 0000 000000
2014-08-28 02:36:09,0.02,0.10,0.00,25.74,29.71,31.92,9.39,38.76,1010.76,2029.99,3415.33,3287.99,3568.05,499.76,489.04,11.17,0000 0000 0000 0000 000000
2014-08-28 02:41:10,0.02,0.10,0.00,25.78,29.75,31.94,9.43,38.85,1010.74,2029.98,3414.97,3287.63,3567.95,500.00,489.30,11.21,0000 0000 0000 0000 000000
2014-08-28 02:46:11,0.03,0.10,0.00,25.82,29.77,31.98,9.46,38.73,1010.73,2029.88,3414.37,3287.03,3567.21,500.21,489.30,11.25,0000 0000 0000 0000 000000
2014-08-28 02:51:12,-0.03,0.10,0.00,25.86,29.81,32.01,9.39,38.57,1010.72,2029.61,3414.01,3286.96,3566.98,499.87,489.13,11.29,0000 0000 0000 0000 000000
2014-08-28 02:56:13,0.00,0.10,0.00,25.91,29.84,32.04,9.35,38.55,1010.64,2029.13,3413.56,3286.22,3566.29,500.07,489.06,11.34,0000 0000 0000 0000 000000
2014-08-28 03:01:15,0.00,0.10,0.00,25.95,29.87,32.07,9.34,38.58,1010.60,2029.02,3413.01,3286.00,3566.00,499.68,488.43,11.38,0000 0000 0000 0000 000000
2014-08-28 03:06:16,0.02,0.10,0.00,25.99,29.91,32.10,9.37,38.46,1010.46,2029.00,3412.76,3285.87,3565.63,499.61,488.33,11.42,0000 0000 0000 0000 000000
2014-08-28 03:11:17,0.04,0.10,0.00,26.06,29.94,32.13,9.40,38.48,1010.45,2029.00,3412.06,3285.16,3565.03,500.08,488.58,11.46,0000 0000 0000 0000 000000
2014-08-28 03:16:17,0.02,0.10,0.00,26.10,29.97,32.17,9.41,38.57,1010.34,2028.99,3411.64,3284.98,3564.67,500.25,488.71,11.50,0000 0000 0000 0000 000000
2014-08-28 03:21:18,0.03,0.10,0.00,26.15,30.01,32.20,9.43,38.58,1010.40,2028.93,3411.02,3284.30,3564.03,500.35,488.79,11.55,0000 0000 0000 0000 000000
2014-08-28 03:26:19,-0.02,0.10,0.00,26.18,30.04,32.24,9.32,38.51,1010.46,2028.66,3410.59,3284.01,3563.72,499.70,487.97,11.59,0000 0000 0000 0000 000000
2014-08-28 03:31:21,-0.02,0.10,0.00,26.22,30.08,32.28,9.40,38.29,1010.31,2028.21,3410.03,3283.88,3563.06,500.01,488.44,11.63,0000 0000 0000 0000 000000
2014-08-28 03:36:21,0.03,0.10,0.00,26.27,30.11,32.32,9.41,38.31,1010.30,2028.05,3409.34,3283.11,3562.77,500.21,488.56,11.67,0000 0000 0000 0000 000000
2014-08-28 03:41:22,0.01,0.10,0.00,26.30,30.14,32.36,9.37,38.32,1010.28,2028.00,3408.99,3282.96,3562.05,500.11,488.36,11.71,0000 0000 0000 0000 000000
2014-08-28 03:46:24,0.04,0.10,0.00,26.33,30.18,32.38,9.36,38.18,1010.28,2028.00,3408.35,3282.41,3561.85,499.72,487.75,11.75,0000 0000 0000 0000 000000
2014-08-28 03:51:25,0.02,0.11,0.00,26.38,30.21,32.42,9.41,38.46,1010.29,2028.00,3407.98,3282.00,3561.05,499.81,487.97,11.80,0000 0000 0000 0000 000000
2014-08-28 03:56:26,0.02,0.11,0.00,26.42,30.24,32.46,9.29,38.35,1010.28,2027.95,3407.24,3281.70,3560.86,499.88,487.86,11.84,0000 0000 0000 0000 000000
2014-08-28 04:01:27,0.01,0.11,0.00,26.47,30.27,32.49,9.39,38.28,1010.27,2027.71,3406.94,3281.04,3560.08,499.58,487.47,11.88,0000 0000 0000 0000 000000
2014-08-28 04:06:28,-0.03,0.11,0.00,26.50,30.31,32.53,9.36,38.08,1010.27,2027.25,3406.29,3281.00,3559.97,500.03,487.79,11.92,0000 0000 0000 0000 000000
2014-08-28 04:11:29,0.01,0.11,0.00,26.51,30.34,32.57,9.38,38.20,1010.28,2027.05,3405.98,3280.46,3559.29,500.05,488.06,11.96,0000 0000 0000 0000 000000
2014-08-28 04:16:31,0.02,0.11,0.00,26.55,30.37,32.60,9.42,38.34,1010.27,2027.00,3405.37,3280.01,3558.99,499.94,487.76,12.01,0000 0000 0000 0000 000000
2014-08-28 04:21:32,0.01,0.11,0.00,26.61,30.41,32.64,9.32,38.30,1010.27,2027.00,3404.99,3279.94,3558.34,499.94,487.55,12.05,0000 0000 0000 0000 000000
2014-08-28 04:26:34,0.04,0.11,0.00,26.63,30.44,32.67,9.32,38.17,1010.27,2027.00,3404.49,3279.38,3558.00,499.60,487.17,12.09,0000 0000 0000 0000 000000
2014-08-28 04:31:35,0.01,0.11,0.00,26.66,30.48,32.70,9.31,38.27,1010.27,2026.94,3404.01,3279.00,3557.63,499.80,487.52,12.13,0000 0000 0000 0000 000000
2014-08-28 04:36:36,-0.03,0.11,0.00,26.71,30.51,32.74,9.33,38.21,1010.27,2026.56,3403.58,3278.73,3557.02,499.85,487.47,12.17,0000 0000 0000 0000 000000
2014-08-28 04:41:37,-0.00,0.11,0.00,26.74,30.54,32.78,9.39,38.19,1010.27,2026.18,3403.04,3278.07,3556.78,499.41,487.05,12.21,0000 0000 0000 0000 000000
2014-08-28 04:46:38,0.01,0.11,0.00,26.78,30.58,32.82,9.35,38.32,1010.27,2026.01,3402.40,3277.97,3556.06,499.75,487.21,12.26,0000 0000 0000 0000 000000
2014-08-28 04:51:39,0.03,0.11,0.00,26.80,30.61,32.85,9.35,38.19,1010.27,2026.00,3402.01,3277.36,3555.92,499.90,487.01,12.30,0000 0000 0000 0000 000000
2014-08-28 04:56:40,0.03,0.11,0.00,26.83,30.65,32.88,9.36,38.08,1010.27,2025.99,3401.43,3277.00,3555.15,500.05,487.23,12.34,0000 0000 0000 0000 000000
2014-08-28 05:01:41,0.01,0.11,0.00,26.87,30.68,32.92,9.38,38.21,1010.24,2025.98,3401.00,3276.78,3554.97,500.24,487.23,12.38,0000 0000 0000 0000 000000
2014-08-28 05:06:42,0.03,0.11,0.00,26.92,30.72,32.95,9.45,38.44,1010.22,2025.92,3400.66,3276.10,3554.28,500.70,487.84,12.42,0000 0000 0000 0000 000000
2014-08-28 05:11:43,-0.05,0.11,0.00,26.96,30.76,32.99,9.38,38.20,1010.23,2025.47,3400.02,3275.97,3553.99,500.12,487.22,12.47,0000 0000 0000 0000 000000
2014-08-28 05:16:44,0.02,0.11,0.00,27.01,30.79,33.02,9.30,38.10,1010.22,2025.05,3399.73,3275.31,3553.33,499.90,486.82,12.51,0000 0000 0000 0000 000000
2014-08-28 05:21:45,0.01,0.11,0.00,27.05,30.83,33.05,9.39,37.96,1010.15,2025.00,3399.13,3275.01,3553.00,499.75,486.49,12.55,0000 0000 0000 0000 000000
2014-08-28 05:26:47,0.01,0.11,0.00,27.08,30.86,33.09,9.38,38.01,1009.98,2025.00,3398.97,3274.95,3552.83,500.67,487.35,12.59,0000 0000 0000 0000 000000
2014-08-28 05:31:48,0.05,0.12,0.00,27.10,30.90,33.12,9.33,37.92,1009.99,2025.00,3398.41,3274.37,3552.10,499.98,486.70,12.63,0000 0000 0000 0000 000000
2014-08-28 05:36:49,0.00,0.12,0.00,27.13,30.94,33.17,9.27,37.98,1009.86,2024.99,3398.01,3274.00,3551.98,499.54,486.27,12.67,0000 0000 0000 0000 000000
2014-08-28 05:41:50,0.01,0.12,0.00,27.17,30.97,33.21,9.33,38.13,1009.94,2024.86,3397.67,3273.77,3551.51,500.07,486.61,12.72,0000 0000 0000 0000 000000
2014-08-28 05:46:51,-0.04,0.12,0.00,27.19,31.01,33.24,9.39,38.03,1010.11,2024.20,3397.02,3273.06,3550.96,500.41,487.09,12.76,0000 0000 0000 0000 000000
2014-08-28 05:51:52,0.01,0.12,0.00,27.24,31.04,33.27,9.33,37.95,1010.03,2024.06,3396.87,3272.98,3550.37,499.72,486.28,12.80,0000 0000 0000 0000 000000
2014-08-28 05:56:54,0.03,0.12,0.00,27.26,31.08,33.31,9.30,38.17,1009.96,2024.00,3396.11,3272.42,3550.00,499.84,486.52,12.84,0000 0000 0000 0000 000000
2014-08-28 06:01:54,0.01,0.12,0.00,27.28,31.11,33.34,9.32,38.00,1009.91,2024.00,3395.97,3272.02,3549.58,499.71,485.97,12.88,0000 0000 0000 0000 000000
2014-08-28 06:06:55,0.02,0.12,0.00,27.33,31.15,33.37,9.25,38.08,1009.97,2023.99,3395.38,3271.94,3549.04,499.46,485.89,12.93,0000 0000 0000 0000 000000
2014-08-28 06:11:57,0.02,0.12,0.00,27.36,31.18,33.41,9.23,38.10,1009.89,2023.93,3395.01,3271.36,3548.95,499.57,486.07,12.97,0000 0000 0000 0000 000000
2014-08-28 06:16:58,-0.01,0.12,0.00,27.38,31.21,33.44,9.28,38.37,1009.84,2023.71,3394.84,3271.01,3548.34,499.95,486.08,13.01,0000 0000 0000 0000 000000
2014-08-28 06:21:59,-0.04,0.12,0.00,27.42,31.24,33.47,9.24,38.33,1009.83,2023.16,3394.09,3270.96,3548.01,499.68,485.72,13.05,0000 0000 0000 0000 000000
2014-08-28 06:27:00,0.01,0.12,0.00,27.42,31.28,33.51,9.34,38.17,1009.83,2023.04,3393.99,3270.44,3547.86,500.13,486.26,13.09,0000 0000 0000 0000 000000
2014-08-28 06:32:01,0.03,0.12,0.00,27.43,31.31,33.54,9.43,38.31,1009.81,2023.00,3393.54,3270.03,3547.14,500.29,486.48,13.13,0000 0000 0000 0000 000000
2014-08-28 06:37:02,0.01,0.12,0.00,27.47,31.34,33.58,9.37,38.36,1009.78,2023.00,3393.03,3269.91,3546.97,500.11,486.12,13.18,0000 0000 0000 0000 000000
2014-08-28 06:42:03,0.03,0.12,0.00,27.51,31.37,33.60,9.42,38.23,1009.78,2022.95,3392.83,3269.20,3546.30,500.29,486.26,13.22,0000 0000 0000 0000 000000
2014-08-28 06:47:05,-0.02,0.12,0.00,27.52,31.40,33.63,9.36,38.23,1009.78,2022.69,3392.12,3269.00,3546.00,500.04,485.95,13.26,0000 0000 0000 0000 000000
2014-08-28 06:52:06,-0.03,0.12,0.00,27.54,31.43,33.67,9.42,38.38,1009.78,2022.23,3392.00,3268.90,3545.65,500.19,485.88,13.30,0000 0000 0000 0000 000000
2014-08-28 06:57:07,0.02,0.12,0.00,27.58,31.46,33.70,9.34,38.23,1009.78,2022.03,3391.82,3268.34,3545.08,500.17,485.90,13.34,0000 0000 0000 0000 000000
2014-08-28 07:02:08,0.01,0.12,0.00,27.61,31.49,33.74,9.32,38.12,1009.77,2022.00,3391.16,3268.02,3544.97,500.01,485.70,13.39,0000 0000 0000 0000 000000
2014-08-28 07:07:09,0.01,0.12,0.00,27.63,31.52,33.75,9.25,38.07,1009.74,2022.00,3391.00,3267.94,3544.49,499.63,485.36,13.43,0000 0000 0000 0000 000000
2014-08-28 07:12:10,0.02,0.12,0.00,27.66,31.55,33.78,9.25,38.23,1009.77,2021.99,3390.92,3267.43,3544.02,499.87,485.54,13.47,0000 0000 0000 0000 000000
2014-08-28 07:17:11,0.02,0.12,0.00,27.66,31.58,33.82,9.22,38.01,1009.78,2021.94,3390.23,3267.03,3543.96,499.40,485.07,13.51,0000 0000 0000 0000 000000
2014-08-28 07:22:12,-0.01,0.12,0.00,27.70,31.61,33.85,9.38,38.13,1009.78,2021.72,3390.01,3266.99,3543.37,500.40,486.01,13.55,0000 0000 0000 0000 000000
2014-08-28 07:27:13,-0.04,0.12,0.00,27.73,31.64,33.88,9.32,38.01,1009.78,2021.28,3389.87,3266.71,3543.01,499.64,485.24,13.59,0000 0000 0000 0000 000000
2014-08-28 07:32:14,0.03,0.12,0.00,27.75,31.67,33.90,9.35,38.03,1009.78,2021.09,3389.14,3266.12,3542.56,499.77,485.53,13.64,0000 0000 0000 0000 000000
2014-08-28 07:37:15,0.03,0.12,0.00,27.77,31.70,33.93,9.38,38.13,1009.78,2021.01,3388.21,3265.48,3541.96,500.11,485.39,13.68,0000 0000 0000 0000 000000
2014-08-28 07:42:16,0.02,0.13,0.00,27.79,31.72,33.96,9.37,38.04,1009.78,2021.00,3387.95,3265.01,3541.22,500.51,485.97,13.72,0000 0000 0000 0000 000000
2014-08-28 07:47:17,0.02,0.13,0.00,27.82,31.75,33.99,9.31,38.26,1009.78,2020.99,3387.38,3264.86,3540.99,499.94,485.53,13.76,0000 0000 0000 0000 000000
2014-08-28 07:52:18,0.02,0.13,0.00,27.82,31.77,34.00,9.31,38.12,1009.79,2020.92,3387.00,3264.23,3540.62,499.79,485.29,13.80,0000 0000 0000 0000 000000
2014-08-28 07:57:19,-0.01,0.13,0.00,27.84,31.80,34.04,9.29,38.46,1009.82,2020.69,3386.70,3264.00,3540.04,499.72,485.14,13.85,0000 0000 0000 0000 000000
2014-08-28 08:02:20,-0.04,0.13,0.00,27.86,31.82,34.07,9.40,38.33,1009.91,2020.27,3386.04,3263.94,3539.96,500.12,485.43,13.89,0000 0000 0000 0000 000000
2014-08-28 08:07:21,0.02,0.13,0.00,27.88,31.85,34.08,9.23,38.14,1009.84,2020.07,3385.93,3263.47,3539.42,499.88,485.35,13.93,0000 0000 0000 0000 000000
2014-08-28 08:12:22,0.02,0.13,0.00,27.86,31.87,34.10,9.24,38.19,1009.95,2020.03,3385.22,3263.03,3539.01,499.78,485.24,13.97,0000 0000 0000 0000 000000
2014-08-28 08:17:23,0.01,0.13,0.00,27.89,31.90,34.13,9.28,38.04,1010.17,2020.00,3384.83,3263.00,3538.79,499.76,485.48,14.01,0000 0000 0000 0000 000000
2014-08-28 08:22:24,0.04,0.13,0.00,27.90,31.92,34.16,9.34,38.13,1010.15,2020.00,3384.05,3262.56,3538.05,500.16,485.74,14.05,0000 0000 0000 0000 000000
2014-08-28 08:27:26,0.01,0.13,0.00,27.91,31.94,34.19,9.33,37.96,1009.88,2020.00,3383.92,3262.05,3537.93,499.89,485.31,14.10,0000 0000 0000 0000 000000
2014-08-28 08:32:27,0.03,0.13,0.00,27.94,31.96,34.20,9.33,38.08,1009.80,2020.00,3383.13,3261.94,3537.17,499.70,485.05,14.14,0000 0000 0000 0000 000000
2014-08-28 08:37:28,0.04,0.13,0.00,27.94,31.98,34.22,9.35,38.23,1009.79,2020.00,3382.60,3261.30,3536.86,500.39,485.61,14.18,0000 0000 0000 0000 000000
2014-08-28 08:42:29,0.01,0.13,0.00,27.96,32.00,34.24,9.32,38.09,1009.79,2019.97,3381.99,3260.99,3536.15,500.18,485.26,14.22,0000 0000 0000 0000 000000
2014-08-28 08:47:30,0.02,0.13,0.00,27.97,32.02,34.26,9.35,37.90,1009.80,2019.95,3381.37,3260.86,3535.99,500.01,485.25,14.26,0000 0000 0000 0000 000000
2014-08-28 08:52:32,0.03,0.14,0.00,28.00,32.04,34.28,9.38,38.04,1009.79,2019.91,3380.94,3260.19,3535.38,500.16,485.17,14.31,0000 0000 0000 0000 000000
2014-08-28 08:57:33,-0.02,0.14,0.00,28.02,32.06,34.30,9.21,37.83,1009.79,2019.63,3380.16,3259.99,3534.99,499.83,484.97,14.35,0000 0000 0000 0000 000000
2014-08-28 09:02:34,0.03,0.14,0.00,28.03,32.07,34.31,9.36,37.76,1009.79,2019.45,3379.88,3259.56,3534.44,500.09,485.28,14.39,0000 0000 0000 0000 000000
2014-08-28 09:07:35,-0.00,0.14,0.00,28.04,32.10,34.34,9.32,37.77,1009.78,2019.18,3379.06,3259.03,3534.00,499.63,484.80,14.43,0000 0000 0000 0000 000000
2014-08-28 09:12:36,0.03,0.14,0.00,28.04,32.11,34.36,9.39,38.03,1009.78,2019.03,3378.38,3258.86,3533.25,499.84,485.11,14.47,0000 0000 0000 0000 000000
2014-08-28 09:17:37,0.02,0.14,0.00,28.05,32.13,34.38,9.37,37.88,1009.78,2019.01,3377.95,3258.21,3532.99,500.14,485.19,14.51,0000 0000 0000 0000 000000
2014-08-28 09:22:38,0.02,0.14,0.00,28.07,32.15,34.38,9.29,37.63,1009.78,2019.00,3377.20,3258.00,3532.49,500.01,484.91,14.56,0000 0000 0000 0000 000000
2014-08-28 09:27:39,0.04,0.14,0.00,28.07,32.17,34.40,9.37,37.91,1009.78,2019.00,3376.65,3257.50,3532.00,500.20,485.23,14.60,0000 0000 0000 0000 000000
2014-08-28 09:32:40,0.02,0.14,0.00,28.07,32.19,34.42,9.34,37.75,1009.78,2019.00,3376.03,3257.04,3531.46,500.20,484.98,14.64,0000 0000 0000 0000 000000
2014-08-28 09:37:41,0.01,0.14,0.00,28.09,32.20,34.43,9.21,37.63,1009.78,2018.99,3375.54,3256.97,3531.01,499.48,484.48,14.68,0000 0000 0000 0000 000000
2014-08-28 09:42:42,0.03,0.14,0.00,28.10,32.22,34.45,9.32,37.86,1009.78,2018.98,3374.96,3256.35,3530.57,500.11,485.16,14.72,0000 0000 0000 0000 000000
2014-08-28 09:47:43,0.02,0.15,0.00,28.10,32.23,34.47,9.31,38.13,1009.78,2018.95,3374.20,3256.00,3530.02,500.03,485.09,14.77,0000 0000 0000 0000 000000
2014-08-28 09:52:44,0.02,0.15,0.00,28.11,32.25,34.49,9.31,37.67,1009.78,2018.94,3373.83,3255.93,3529.75,499.93,485.07,14.81,0000 0000 0000 0000 000000
2014-08-28 09:57:45,0.02,0.15,0.00,28.11,32.27,34.50,9.31,37.92,1009.78,2018.80,3373.07,3255.25,3529.06,499.93,485.00,14.85,0000 0000 0000 0000 000000
2014-08-28 10:02:46,0.01,0.15,0.00,28.12,32.28,34.52,9.27,37.73,1009.78,2018.62,3372.58,3255.00,3528.75,499.36,484.59,14.89,0000 0000 0000 0000 000000
2014-08-28 10:07:47,0.00,0.15,0.00,28.13,32.30,34.53,9.31,37.89,1009.78,2018.40,3371.96,3254.74,3528.10,500.39,485.32,14.93,0000 0000 0000 0000 000000
2014-08-28 10:12:48,0.01,0.15,0.00,28.15,32.31,34.55,9.26,37.71,1009.77,2018.11,3371.15,3254.04,3527.79,500.13,484.97,14.97,0000 0000 0000 0000 000000
2014-08-28 10:17:49,0.01,0.15,0.00,28.16,32.32,34.57,9.28,38.01,1009.71,2018.06,3370.80,3253.97,3527.09,499.96,484.77,15.02,0000 0000 0000 0000 000000
2014-08-28 10:22:50,0.04,0.15,0.00,28.15,32.35,34.58,9.32,37.77,1009.68,2018.02,3370.04,3253.32,3526.79,499.71,484.64,15.06,0000 0000 0000 0000 000000
2014-08-28 10:27:51,0.02,0.15,0.00,28.17,32.35,34.59,9.44,38.02,1009.38,2018.01,3369.46,3253.01,3526.07,499.92,484.63,15.10,0000 0000 0000 0000 000000
2014-08-28 10:32:52,0.02,0.15,0.00,28.16,32.37,34.60,9.26,37.50,1009.32,2018.00,3368.89,3252.80,3525.80,499.62,484.31,15.14,0000 0000 0000 0000 000000
2014-08-28 10:37:54,0.04,0.16,0.00,28.15,32.37,34.62,9.31,37.46,1009.31,2017.99,3368.07,3252.05,3525.04,499.72,484.55,15.18,0000 0000 0000 0000 000000
2014-08-28 10:42:55,0.01,0.16,0.00,28.15,32.40,34.63,9.30,37.44,1009.31,2017.99,3367.60,3251.99,3524.85,500.33,484.81,15.22,0000 0000 0000 0000 000000
2014-08-28 10:47:56,0.03,0.16,0.00,28.16,32.40,34.63,9.25,37.55,1009.31,2017.99,3367.00,3251.59,3524.09,500.01,484.76,15.27,0000 0000 0000 0000 000000
2014-08-28 10:52:57,0.02,0.16,0.00,28.15,32.42,34.66,9.24,37.65,1009.30,2017.97,3366.26,3251.04,3523.97,500.13,484.67,15.31,0000 0000 0000 0000 000000
2014-08-28 10:57:58,0.02,0.16,0.00,28.18,32.42,34.66,9.30,37.84,1009.30,2017.96,3365.91,3250.99,3523.23,499.46,484.10,15.35,0000 0000 0000 0000 000000
2014-08-28 11:02:59,0.03,0.16,0.00,28.18,32.43,34.68,9.42,37.76,1009.31,2017.90,3365.08,3250.47,3522.99,500.32,484.85,15.39,0000 0000 0000 0000 000000
2014-08-28 11:08:00,0.02,0.16,0.00,28.18,32.45,34.68,9.35,37.80,1009.30,2017.89,3364.75,3250.04,3522.59,500.20,484.74,15.43,0000 0000 0000 0000 000000
2014-08-28 11:13:01,0.01,0.16,0.00,28.19,32.45,34.69,9.29,37.96,1009.32,2017.80,3364.04,3249.98,3522.02,499.82,484.54,15.48,0000 0000 0000 0000 000000
2014-08-28 11:18:02,0.02,0.16,0.00,28.20,32.46,34.69,9.44,38.04,1009.52,2017.63,3363.56,3249.53,3521.76,500.27,484.94,15.52,0000 0000 0000 0000 000000
2014-08-28 11:23:03,0.01,0.16,0.00,28.20,32.47,34.71,9.30,37.72,1009.40,2017.65,3362.97,3249.04,3521.10,500.09,484.79,15.56,0000 0000 0000 0000 000000
2014-08-28 11:28:05,0.00,0.16,0.00,28.21,32.47,34.72,9.20,37.88,1009.30,2017.35,3362.28,3248.95,3520.86,499.47,484.15,15.60,0000 0000 0000 0000 000000
2014-08-28 11:33:06,0.01,0.16,0.00,28.20,32.48,34.72,9.33,38.01,1009.30,2017.14,3361.93,3248.38,3520.16,500.19,484.74,15.64,0000 0000 0000 0000 000000
2014-08-28 11:38:07,0.02,0.17,0.00,28.20,32.49,34.72,9.31,37.98,1009.29,2017.04,3361.14,3248.01,3519.99,499.46,484.42,15.68,0000 0000 0000 0000 000000
2014-08-28 11:43:08,0.02,0.17,0.00,28.19,32.50,34.74,9.37,37.83,1009.29,2017.06,3360.81,3247.96,3519.63,500.02,484.68,15.73,0000 0000 0000 0000 000000
2014-08-28 11:48:09,0.04,0.17,0.00,28.17,32.50,34.74,9.31,38.09,1009.29,2017.01,3360.05,3247.30,3519.02,500.15,484.82,15.77,0000 0000 0000 0000 000000
2014-08-28 11:53:10,0.02,0.17,0.00,28.17,32.50,34.74,9.27,38.08,1009.28,2017.00,3359.40,3247.00,3518.77,499.88,484.60,15.81,0000 0000 0000 0000 000000
2014-08-28 11:58:12,0.01,0.17,0.00,28.20,32.50,34.75,9.29,37.79,1009.20,2017.00,3358.98,3246.94,3518.14,499.78,484.26,15.85,0000 0000 0000 0000 000000
2014-08-28 12:03:13,0.03,0.17,0.00,28.17,32.51,34.75,9.29,37.85,1008.93,2017.00,3358.40,3246.48,3518.00,499.81,484.30,15.89,0000 0000 0000 0000 000000
2014-08-28 12:08:14,0.02,0.17,0.00,28.16,32.52,34.76,9.28,37.63,1008.84,2017.01,3357.87,3246.02,3517.70,499.45,484.17,15.94,0000 0000 0000 0000 000000
2014-08-28 12:13:15,0.02,0.17,0.00,28.15,32.52,34.75,9.35,38.04,1008.81,2017.00,3357.07,3245.94,3517.03,500.12,484.59,15.98,0000 0000 0000 0000 000000
2014-08-28 12:18:16,0.04,0.17,0.00,28.15,32.52,34.76,9.28,37.77,1008.80,2017.00,3356.57,3245.31,3516.75,499.77,484.25,16.02,0000 0000 0000 0000 000000
2014-08-28 12:23:17,0.01,0.18,0.00,28.13,32.52,34.75,9.40,37.86,1008.80,2017.00,3355.92,3245.00,3516.03,499.73,484.29,16.06,0000 0000 0000 0000 000000
2014-08-28 12:28:18,0.04,0.18,0.00,28.13,32.52,34.75,9.39,38.02,1008.80,2017.00,3355.09,3244.56,3515.82,500.18,484.71,16.10,0000 0000 0000 0000 000000
2014-08-28 12:33:20,0.03,0.18,0.00,28.12,32.52,34.76,9.28,37.78,1008.80,2017.00,3354.57,3244.06,3515.10,500.14,484.64,16.15,0000 0000 0000 0000 000000
2014-08-28 12:38:21,0.00,0.18,0.00,28.14,32.52,34.75,9.23,37.59,1008.77,2017.00,3353.99,3244.00,3514.95,499.97,484.27,16.19,0000 0000 0000 0000 000000
2014-08-28 12:43:22,0.05,0.18,0.00,28.15,32.52,34.74,9.37,38.07,1008.59,2017.00,3353.24,3243.61,3514.23,500.08,484.42,16.23,0000 0000 0000 0000 000000
2014-08-28 12:48:23,0.01,0.18,0.00,28.14,32.52,34.77,9.28,37.70,1008.35,2017.00,3352.77,3243.08,3514.00,499.40,483.72,16.27,0000 0000 0000 0000 000000
2014-08-28 12:53:24,0.02,0.18,0.00,28.12,32.52,34.76,9.22,37.52,1008.32,2017.00,3352.03,3242.97,3513.53,499.93,484.16,16.31,0000 0000 0000 0000 000000
2014-08-28 12:58:25,0.05,0.19,0.00,28.12,32.52,34.76,9.28,37.48,1008.32,2017.00,3351.32,3242.37,3512.99,499.66,484.15,16.35,0000 0000 0000 0000 000000